EW2131 Weather Reports


time (UTC)temp
F
wind
direction
speed
knots
gust
knots
rain 1hr
in
rain 24hr
in
rain mn
in
humidity
%
barometer
mb
20220812185123 81 14 3.5 6.1 0.00 0.00 0.00 25 1034.3
20220812183223 81 25 2.6 5.2 0.00 0.00 0.00 27 1034.5
20220812181223 80 37 1.7 4.3 0.00 0.00 0.00 27 1034.6
20220812173322 77 304 0.9 5.2 0.00 0.00 0.00 31 1034.9
20220812171422 75 348 3.5 6.1 0.00 0.00 0.00 31 1035.2
20220812164542 77 29 1.7 5.2 0.00 0.00 0.00 30 1035.3
20220812161624 73 29 1.7 6.1 0.00 0.00 0.00 35 1035.6
20220812160723 74 116 1.7 4.3 0.00 0.00 0.00 33 1035.6
20220812155722 73 137 1.7 2.6 0.00 0.00 0.00 33 1035.9
20220812154723 71 96 2.6 3.5 0.00 0.00 0.00 35 1036.0
20220812145922 63 112 0.0 0.9 0.00 0.00 0.00 49 1036.0
20220812143921 56 157 0.9 1.7 0.00 0.00 0.00 57 1036.1
20220812142022 55 71 0.0 0.9 0.00 0.00 0.00 55 1036.1
20220812140122 56 150 1.7 2.6 0.00 0.00 0.00 52 1036.0
20220812135140 56 279 0.0 1.7 0.00 0.00 0.00 51 1036.0
20220812132223 55 173 5.2 7.8 0.00 0.00 0.00 50 1035.7
20220812131237 55 204 4.3 7.0 0.00 0.00 0.00 50 1035.8
20220812130323 55 195 4.3 5.2 0.00 0.00 0.00 51 1035.9
20220812125421 55 178 5.2 7.8 0.00 0.00 0.00 49 1036.0
20220812121621 55 177 2.6 4.3 0.00 0.00 0.00 49 1036.0
20220812120623 55 214 1.7 3.5 0.00 0.00 0.00 49 1036.0
20220812114724 55 190 4.3 6.1 0.00 0.00 0.00 49 1035.9
20220812113722 56 192 1.7 3.5 0.00 0.00 0.00 50 1035.8
20220812112821 55 214 0.0 1.7 0.00 0.00 0.00 50 1035.6
20220812111823 56 178 0.9 0.9 0.00 0.00 0.00 50 1035.6
20220812110821 56 176 2.6 3.5 0.00 0.00 0.00 48 1035.7
20220812105838 56 202 2.6 7.0 0.00 0.00 0.00 48 1035.6
20220812104923 56 182 2.6 4.3 0.00 0.00 0.00 48 1035.6
20220812100121 57 184 2.6 3.5 0.00 0.00 0.00 48 1035.6
20220812093237 58 202 0.0 1.7 0.00 0.00 0.00 48 1035.6
20220812091222 57 198 4.3 7.0 0.00 0.00 0.00 49 1035.6
20220812090321 57 185 2.6 3.5 0.00 0.00 0.00 50 1035.5
20220812084321 58 247 0.0 0.9 0.00 0.00 0.00 50 1035.6
20220812083323 59 213 0.9 2.6 0.00 0.00 0.00 47 1035.3
20220812082401 60 186 5.2 8.7 0.00 0.00 0.00 46 1035.2
20220812054811 60 200 1.7 3.5 0.00 0.00 0.00 45 1035.6
20220812050909 60 162 3.5 5.2 0.00 0.00 0.00 45 1035.6
20220812045012 60 174 4.3 6.1 0.00 0.00 0.00 46 1035.7
20220812043111 60 181 4.3 7.8 0.00 0.00 0.00 46 1035.5
20220812040209 61 161 2.6 4.3 0.00 0.00 0.00 47 1035.6
20220812035308 62 160 3.5 6.1 0.00 0.00 0.00 47 1035.3
20220812034310 62 163 5.2 7.0 0.00 0.00 0.00 48 1035.3
20220812031309 64 154 7.0 9.6 0.00 0.00 0.00 47 1035.2
20220812025310 64 176 1.7 5.2 0.00 0.00 0.00 47 1035.0
20220812024309 65 148 4.3 6.1 0.00 0.00 0.00 48 1034.8
20220812022410 66 185 2.6 3.5 0.00 0.00 0.00 47 1034.5
20220812014610 69 159 6.1 9.6 0.00 0.00 0.00 45 1034.1
20220812012610 70 202 0.0 0.0 0.00 0.00 0.00 41 1033.9
20220812010625 71 90 0.0 0.9 0.00 0.00 0.00 40 1033.7
20220812004708 72 22 0.0 0.0 0.00 0.00 0.00 39 1033.6
20220812003726 73 67 0.0 0.0 0.00 0.00 0.00 36 1033.6
20220812000824 74 90 0.0 0.9 0.00 0.00 0.00 34 1033.7
20220811234824 74 347 0.9 2.6 0.00 0.00 0.00 33 1033.8
20220811232811 74 36 0.0 1.7 0.00 0.00 0.00 34 1033.8
20220811231810 74 342 4.3 7.0 0.00 0.00 0.00 33 1033.9
20220811230908 74 355 0.0 1.7 0.00 0.00 0.00 33 1033.9
20220811225009 75 343 2.6 3.5 0.00 0.00 0.00 35 1034.0
20220811221124 73 156 0.0 0.9 0.00 0.00 0.00 41 1034.2
20220811220210 73 133 3.5 6.1 0.00 0.00 0.00 41 1034.2
20220811215309 72 136 2.6 4.3 0.00 0.00 0.00 40 1034.3
20220811211409 76 184 0.9 1.7 0.00 0.00 0.00 30 1034.5
20220811205410 77 270 0.0 0.9 0.00 0.00 0.00 28 1034.3
20220811204424 78 219 0.9 5.2 0.00 0.00 0.00 27 1034.1
20220811203410 80 292 0.9 1.7 0.00 0.00 0.00 23 1034.0
20220811194607 78 202 3.5 4.3 0.00 0.00 0.00 27 1034.6
20220811193610 78 195 0.0 1.7 0.00 0.00 0.00 28 1034.7